Reflectivity
-20 -20 -20 -20 -20 -20 -20 -20 -20 -20 -20 -20 -20 -20 -20 -20 -20 -9 -20 -20 -20 -20 -20 -20 -20 -20 -20 -20 -20 -20 -20 -20 -20 -20 -20 -20 -20 -20 -20 -20 -20 -20 -20 -20 -20 -20 -20 -20 -20 -20 -20 -20 -20 -20
-20 -20 -20 -20 -20 7 -18 -20 -20 -20 -20 -20 -20 -7 -9 -20 -20 -20 -20 -20 -20 -20 -20 -20 -20 -20 -20 -20 -20 -20 -20 -20 -20 -20 -20 -20 -20 -20 -20 -20 -20 -20 -20 -20 -20 -20 -20 -20 -20 -20 -20 -20 -20 -20
-20 -20 -19 -20 -10 11 -20 -20 -20 -20 -16 7 11 9 7 3 -20 -20 -20 -20 -20 -20 -20 -20 -20 -20 -20 -20 -20 -20 -20 -20 -20 -20 -20 -20 -20 -20 -20 -20 -20 -20 -20 -20 -20 -20 -20 -20 -20 -20 -20 -20 -20 -20
-20 -20 -5 -20 -13 -1 -20 -20 -20 -13 7 5 8 6 6 5 -20 -20 -20 -20 -20 -20 -20 -20 -20 -20 -20 -20 -20 -20 -20 -20 -20 -20 -20 -20 -20 -20 -20 -20 -20 -20 -20 -20 -20 -20 -20 -20 -20 -20 -20 -20 -20 -20
-1 -5 -9 -18 4 -20 -20 -18 7 4 -4 -20 -20 -17 -2 -20 -4 -20 -20 -20 -20 -20 -20 -20 -20 -20 -20 -20 -20 -20 -20 -20 -20 -20 -20 -20 -20 -20 -20 -20 -20 -20 -20 -20 -20 -20 -20 -20 -20 -20 -20 -20 -20 -20
17 8 -11 1 22 -20 -16 1 7 6 7 -7 6 -19 -20 -20 -20 -20 -20 -20 -20 -20 -20 -20 -20 -20 -20 -20 -20 -20 -20 -20 -20 -20 -20 -20 -20 -20 -20 -20 -16 -20 -20 -20 -20 -20 -20 -20 -20 -20 -20 -20 -20 -20
-1 -1 -6 11 12 -3 -6 -20 7 8 8 9 1 -20 -3 -20 -20 -20 -20 -16 8 -20 -20 -20 -15 -20 -20 -20 -20 -20 -20 -20 -20 -20 -20 -20 -20 -20 -20 -20 -20 -20 -20 -20 -20 -20 -20 -20 -20 -20 -20 -20 -20 -20
6 1 -7 -8 10 4 8 -20 -1 7 8 11 -20 -20 -20 -20 -20 -20 -20 -2 -15 -20 -20 -20 -20 -20 -20 -14 -11 -20 -13 -20 -20 -15 -7 -11 -10 -20 -12 -20 -20 -20 -20 -20 -20 -20 -20 -20 -20 -20 -20 -20 -19 -7
15 -3 -9 -14 -20 2 -6 -20 -20 8 11 8 -20 -20 -20 -20 -20 -12 -17 -18 -20 -20 -20 -18 -20 -20 -20 -20 -6 -20 -18 -4 -20 -5 -15 -20 -2 -20 -20 -20 -20 -20 -20 -20 -20 -20 -20 -20 -20 -20 -18 -9 3 31
24 19 5 -13 -20 -18 6 -19 -7 9 -2 -20 -20 -20 -20 -20 -12 -20 -20 -20 -20 -20 -20 -5 -18 -20 -20 -19 -16 -20 -3 -20 -20 -20 -20 -19 -20 -20 -20 -20 -20 -20 -20 -20 -20 -20 -20 -20 -20 -20 -19 31 29 16
-20 -20 2 4 -19 -6 7 -8 -20 -20 -20 -20 -20 -4 -20 -20 -20 -20 -19 -20 -14 -20 -12 -20 -8 -15 -20 -20 -20 -20 -20 -20 -20 -20 -12 -19 -20 -20 -20 -20 -20 -20 -20 -20 -20 -20 -20 -16 5 35 28 17 24 -11
3 3 -16 -17 9 10 13 2 -17 -20 -20 -20 -20 -20 -20 -20 -20 -20 -9 -3 -8 -20 -9 -17 -20 -20 -20 -20 -20 -20 -20 -20 -20 -20 -6 -2 -20 -20 -20 -20 -20 -20 -20 -20 -20 -20 -7 24 35 21 0 -5 5 3
0 6 1 -16 -19 8 4 10 -10 -20 -20 -20 -20 -20 -20 -20 -20 -20 -20 -0 -20 -20 1 -20 -20 -20 -20 -20 -6 -0 5 -15 -19 -20 -20 -9 -16 -20 -20 -20 -19 4 17 23 31 32 26 17 -3 1 7 5 -7 -20
4 5 4 8 5 6 1 -5 -13 11 11 16 9 26 -6 -4 -6 2 -20 -16 -2 -6 -12 -19 -19 -18 -8 13 24 14 17 13 2 -6 -17 12 24 31 30 23 0 6 -1 1 5 2 10 12 10 8 8 -20 -20 -20
-20 -16 -20 -20 -20 -20 -20 -5 5 -6 -0 1 -14 -16 -15 -15 8 3 -12 9 14 17 21 12 16 17 11 15 -8 12 11 10 -14 -20 -6 24 27 28 12 -1 -11 -2 6 9 6 6 6 4 1 -9 -18 -20 -20 -20
-20 -20 -20 -20 -20 -20 -20 -20 -20 -20 -20 -20 -20 -16 -6 -20 -20 -17 -18 -18 -7 5 15 20 3 4 11 16 -4 -16 -20 -20 -19 -9 17 27 -17 1 23 23 11 -4 -11 -20 -20 -20 -20 -20 -20 -20 -20 -20 -20 -20
-20 -20 -20 -20 -20 -20 -20 -20 -20 -20 -20 -20 -20 -20 -20 -20 -20 -15 -3 -12 -11 -9 -20 -20 -20 -20 -6 -6 -8 0 6 1 32 26 25 24 12 4 5 10 10 7 2 -3 -10 -19 -19 -20 -20 -20 -20 -20 -20 -20
-20 -20 -20 -20 -20 -20 -20 -20 -20 -20 -20 -16 -8 -18 -19 -19 10 -12 -0 -20 -20 1 -20 -20 -20 -20 -20 -20 -20 7 16 -20 6 -0 3 19 6 7 6 4 0 -4 -10 -20 -20 -20 -20 -20 -20 -20 -20 -20 -20 -20
-20 -20 -20 -20 -20 -20 -20 -20 -20 -20 -20 -15 -14 2 -7 2 -18 -14 1 -10 -20 -20 -20 -20 -20 -20 -20 -20 -20 -18 -20 -20 -20 -20 -20 -20 -20 -20 -20 -20 -20 -20 -20 -20 -20 -20 -20 -20 -20 -20 -20 -20 -20 -20
-20 -20 -20 -20 -20 -20 -20 -20 -20 -20 -20 -20 -2 2 -12 -13 -1 11 5 -17 -20 -20 -20 -20 -20 -20 -20 -20 -20 -20 -20 -20 -20 -20 -20 -20 -20 -20 -20 -20 -20 -20 -20 -20 -20 -20 -20 -20 -20 -20 -20 -15 -18 -20
-20 -20 -20 -20 -20 -20 -20 -20 -20 -20 -20 -20 -20 -20 -20 -20 2 6 -3 -12 -20 -20 -20 -20 -20 -20 -20 -20 -20 -20 -20 -20 -20 -20 -20 -20 -20 -20 -20 -20 -20 -20 -20 -20 -20 -13 -2 -20 -20 -20 -20 -20 -20 -20
-20 -20 -20 -20 -20 -20 -20 -20 -20 -20 -20 -20 -17 -7 -20 -2 8 4 -20 -17 -20 -20 -20 -20 -20 -20 -20 -20 -20 -20 -20 -20 -20 -20 -20 -20 -20 -20 -20 -20 -20 -20 -20 -20 -20 -20 -20 -20 -6 -16 -11 -19 -16 -15
-20 -20 -20 -20 -20 -20 -20 -20 -6 -20 -20 -20 -20 -20 -20 -20 -20 -20 -20 -20 -20 -20 -20 -20 -20 -20 -19 9 0 -5 -20 -20 -20 -20 -20 -20 -20 -20 -20 -20 -20 -20 -20 -20 -15 -20 -20 -20 -20 -20 -20 -20 -20 -20
-20 -20 -20 -20 -17 -20 -17 -20 -20 -20 -20 -20 -20 -20 -20 -20 -20 -20 -20 -20 -20 -20 -5 -19 -20 -20 -20 -20 -20 -20 -20 -20 -20 -20 -20 -20 -20 -20 -20 -20 -20 -20 -20 -20 -20 -20 -20 -20 -20 -20 -20 -20 -20 -20
-20 -20 -9 -20 -17 -19 -20 -20 -20 -20 -20 -20 -20 -20 -20 -20 -20 -20 -20 -20 -20 -20 -19 -20 -20 -17 -20 -20 -20 -20 -20 -20 -20 -20 -20 -20 -20 -20 -20 -20 -20 -20 -20 -20 -20 -20 -20 -20 -20 -20 -20 -20 -20 -20
-20 -20 -20 -20 -20 -20 -20 -20 -20 -20 -20 -20 -4 -20 -20 -0 0 -1 -20 -17 -18 -15 -20 -20 -20 -20 -20 -20 -20 -20 -14 -20 -20 -20 -20 -20 -20 -20 -20 -20 -20 -20 -20 -20 -20 -20 -20 -20 -20 -20 -20 -20 -20 -20
-20 -20 -20 -20 -20 -14 4 11 1 -4 -14 -2 -2 -20 -8 14 3 1 -11 -9 6 -5 -13 -20 -20 -20 -20 -20 -20 -20 -20 -20 -20 -20 -20 -20 -20 -20 -20 -20 -20 -20 -20 -20 -20 -20 -20 -20 -20 -20 -20 -20 -20 -20
-20 -20 -20 -20 -20 10 1 -20 0 -3 6 9 11 13 11 -8 -18 0 6 1 -9 -17 -19 -19 -20 -20 -20 -20 -20 -20 -20 -20 -20 -20 -20 -20 -20 -20 -20 -20 -20 -20 -20 -20 -20 -20 -20 -20 -20 -20 -20 -20 -20 -20
-20 -20 -20 -20 -20 -20 -20 -5 5 4 2 9 -5 -3 -9 -20 -19 -20 -19 -18 -20 -20 -20 -20 -20 -20 -20 -20 -20 -20 -20 -20 -20 -20 -20 -20 -20 -20 -20 -20 -20 -20 -20 -20 -20 -20 -20 -20 -20 -20 -20 -20 -20 -20
-20 -20 -20 -20 -20 -20 -20 -20 -20 -20 -19 -20 -20 -20 -20 -20 -20 -19 -20 -20 -20 -20 -20 -20 -20 -20 -20 -20 -20 -20 -20 -20 -20 -20 -20 -20 -20 -20 -20 -20 -20 -20 -20 -20 -20 -20 -20 -20 -20 -20 -20 -20 -20 -20
-20 -20 -20 -20 -20 -20 -20 -19 -19 -20 -20 -20 -20 -20 -20 -20 -20 -20 -20 -20 -20 -20 -20 -20 -20 -20 -20 -20 -20 -20 -20 -20 -20 -20 -20 -20 -20 -20 -20 -20 -20 -20 -20 -20 -20 -20 -20 -20 -20 -20 -20 -20 -20 -20
-20 -20 -20 -20 -20 -20 -20 -20 -20 -20 -20 -20 -20 -20 -20 -20 -20 -20 -20 -20 -20 -20 -20 -20 -20 -20 -20 -20 -20 -20 -20 -20 -20 -20 -20 -20 -20 -20 -20 -20 -20 -20 -20 -20 -20 -20 -20 -20 -20 -20 -20 -20 -20 -20
-20 -20 -20 -20 -20 -20 -20 -20 -20 -20 -20 -20 -20 -20 -20 -20 -20 -20 -20 -20 -20 -20 -20 -20 -20 -20 -20 -20 -20 -20 -20 -20 -20 -20 -20 -20 -20 -20 -20 -20 -20 -20 -20 -20 -20 -20 -20 -20 -20 -20 -20 -20 -20 -20
Wind_Speed
24 23 21 19 17 15 14 13 13 10 9 5 7 8 10 12 9 4 1 1 5 4 2 1 2 6 4 3 7 5 6 5 5 5 4 4 3 6 2 4 6 8 7 4 4 2 10 7 4 8 8 1 9 8
23 21 20 18 16 15 14 14 12 9 8 8 10 10 10 9 4 3 4 2 2 7 3 1 2 2 0 7 8 2 5 5 5 6 1 4 2 2 3 4 2 3 9 7 11 9 4 6 5 4 6 6 7 9
22 20 18 17 15 15 14 12 11 9 10 11 11 12 12 13 10 6 4 2 5 5 4 5 4 6 5 3 3 8 3 5 3 3 4 3 3 5 5 7 1 5 5 3 3 5 9 8 5 4 7 6 6 7
20 18 18 16 14 15 13 11 10 11 11 11 12 12 13 14 11 7 5 2 5 5 7 5 4 4 6 4 3 3 9 7 7 4 4 4 3 4 4 4 4 5 6 4 5 8 5 7 8 6 6 5 7 7
20 18 17 15 15 14 12 11 11 12 10 10 11 10 11 11 10 9 5 3 2 6 5 3 4 5 6 5 9 9 10 7 3 3 3 4 2 4 1 2 4 6 8 5 8 9 6 7 7 7 9 9 8 8
21 18 16 14 13 12 12 12 12 11 11 10 9 10 10 8 4 5 6 4 6 3 7 2 4 5 7 7 9 7 4 4 4 5 3 3 3 5 5 5 9 6 5 7 9 6 8 4 5 6 9 8 6 9
20 18 16 13 12 11 10 11 11 10 9 9 9 10 9 7 5 5 5 3 8 2 6 3 4 5 4 4 4 4 4 2 3 3 2 3 2 4 4 5 11 9 9 8 7 6 2 4 5 6 7 7 13 13
18 17 16 14 12 10 10 10 10 9 8 9 9 9 11 14 10 5 4 8 7 6 5 5 3 5 5 2 2 3 2 3 4 2 1 2 2 2 4 12 7 8 7 7 7 7 5 4 6 9 12 13 14 11
16 15 14 14 13 10 9 9 9 8 8 8 7 7 6 7 4 2 12 10 3 5 5 3 6 5 3 2 2 3 2 2 2 2 2 4 2 6 8 4 4 5 5 5 2 3 5 7 11 12 12 10 13 5
17 15 13 13 13 11 10 9 9 9 7 5 7 6 4 3 7 8 7 6 7 4 4 3 1 2 3 1 2 2 2 1 2 4 2 2 5 5 4 5 7 8 7 5 5 5 8 12 12 12 11 6 5 6
19 18 17 15 14 13 11 10 9 5 7 4 3 2 3 6 3 5 4 4 1 3 3 1 2 2 2 3 3 1 2 0 2 4 4 2 3 4 10 8 9 7 10 10 12 16 14 13 13 11 5 3 3 3
18 19 18 16 15 14 11 7 7 5 2 2 4 3 3 5 4 6 2 1 2 2 2 1 1 1 0 2 3 1 2 1 6 1 1 3 2 5 8 11 13 14 17 19 18 19 14 11 5 5 3 1 1 3
17 18 18 17 15 13 13 13 14 11 3 3 5 5 3 3 3 4 5 1 2 2 2 2 1 1 2 3 3 2 4 4 1 2 3 1 4 7 7 8 12 11 14 13 10 7 5 5 6 3 1 4 4 3
13 15 18 16 15 14 13 9 7 6 5 5 3 4 2 1 2 2 1 2 1 0 1 1 2 2 1 3 1 3 0 1 3 2 2 2 3 5 6 5 6 6 6 7 7 6 4 3 1 2 2 2 2 3
13 12 13 17 16 14 12 9 6 4 4 4 3 3 2 1 2 1 1 1 1 1 1 2 2 1 2 2 1 2 1 1 1 1 1 1 3 4 4 4 5 6 5 4 2 2 1 1 2 4 3 1 1 4
8 9 10 14 14 12 11 6 6 4 4 4 4 3 1 2 1 1 1 1 0 1 1 2 2 2 1 1 2 3 3 2 1 1 1 1 3 6 5 4 2 3 4 2 1 2 2 1 3 4 5 4 5 5
12 4 13 15 11 7 12 5 4 6 4 3 2 2 2 3 2 1 1 1 1 2 1 1 3 3 1 1 1 1 1 2 1 1 1 3 3 5 5 3 3 3 4 5 3 5 3 3 2 2 4 5 4 5
4 5 12 16 9 5 4 5 4 4 5 2 2 2 2 2 2 2 1 2 2 2 2 2 3 2 2 3 2 1 2 2 3 2 1 1 3 3 2 1 3 2 3 3 2 3 2 3 4 4 5 5 5 5
4 7 14 13 6 4 4 5 4 4 2 1 2 2 2 2 0 0 1 2 0 2 4 2 3 2 3 3 3 3 2 2 3 2 1 1 1 1 1 2 1 1 2 2 3 2 3 4 3 4 5 4 4 5
9 14 15 12 7 4 5 3 2 3 2 2 2 2 2 1 1 2 2 2 1 1 1 1 4 4 4 3 4 3 3 3 3 3 2 2 2 2 4 2 2 3 3 5 5 5 6 6 5 6 6 8 8 9
8 6 11 8 4 6 3 2 3 2 1 3 1 2 1 1 1 1 1 1 1 2 2 3 3 3 1 1 0 2 3 3 3 4 4 1 2 3 5 5 5 4 3 5 7 8 9 7 8 8 9 9 9 9
3 7 4 5 5 3 2 3 1 1 3 1 1 1 1 1 2 1 1 2 2 2 2 2 2 1 2 4 4 5 3 6 6 4 6 5 4 4 5 4 5 5 6 7 7 6 7 7 9 9 9 9 10 9
4 4 3 3 3 4 3 3 1 1 2 2 1 1 1 0 0 1 1 2 1 1 1 2 4 8 9 7 9 11 10 9 8 7 5 5 3 4 4 7 7 6 6 6 6 6 6 8 8 8 8 10 10 10
5 5 4 3 3 3 3 3 2 1 2 1 2 2 1 2 1 1 2 2 0 2 3 3 4 6 6 9 8 7 7 4 6 5 4 2 4 6 6 6 4 5 5 5 4 4 6 6 8 8 8 10 10 10
4 5 2 2 2 1 1 3 3 1 4 3 3 2 3 1 2 2 3 1 2 3 3 5 6 6 6 6 5 5 8 6 4 7 7 5 3 3 4 4 3 5 6 6 7 8 8 8 8 8 10 10 11 13
1 3 4 3 3 2 4 2 4 6 4 3 4 2 2 2 3 3 1 2 2 2 4 5 5 5 6 6 5 4 5 4 3 5 6 5 5 3 2 4 5 4 6 3 6 8 10 9 10 12 11 13 13 13
2 4 3 2 2 2 3 2 2 2 4 4 3 3 3 3 2 2 1 4 3 3 4 4 5 5 6 6 6 4 3 3 3 7 6 6 6 6 4 2 5 5 6 6 5 5 9 10 10 10 11 10 7 8
3 2 1 3 2 2 1 2 2 1 1 1 2 1 2 1 2 2 3 3 4 5 6 7 8 7 7 5 2 2 5 4 6 5 4 3 2 1 3 2 3 8 5 4 5 5 5 7 9 10 5 3 4 6
1 3 1 3 3 2 2 2 3 2 3 0 2 2 3 3 3 3 4 3 4 5 6 6 5 5 5 5 5 5 4 4 5 5 3 3 4 4 3 3 4 4 4 5 8 9 10 7 8 3 6 3 2 3
2 1 3 2 1 2 1 1 2 3 2 3 4 3 3 3 4 4 3 4 5 5 5 5 3 3 2 3 2 4 3 2 3 4 2 3 4 4 4 4 4 4 4 3 5 7 9 5 5 5 5 4 4 4
2 2 1 1 1 1 2 2 2 1 1 3 4 4 3 3 2 4 5 4 4 4 4 4 5 3 4 4 3 2 3 3 4 3 2 2 3 4 4 5 4 3 3 3 4 4 4 4 4 4 5 6 6 5
2 2 2 2 3 3 5 4 3 2 4 3 3 3 3 4 3 3 2 3 4 4 1 2 3 1 1 1 1 1 2 2 3 3 4 2 3 4 4 3 3 3 4 4 4 4 4 3 3 4 4 5 5 5
4 4 4 3 5 6 4 4 5 5 4 3 3 2 2 3 3 3 2 2 4 4 2 3 3 1 3 3 2 2 2 3 5 5 4 3 3 4 3 3 2 3 4 4 4 4 5 5 4 4 4 4 5 5
Wind_Direction
133 132 129 123 125 130 121 116 111 109 112 81 56 41 19 23 44 96 169 347 112 104 324 356 143 132 112 109 134 196 62 340 44 69 119 195 166 223 119 187 182 170 149 196 106 70 277 176 90 165 211 179 179 179
126 123 123 126 123 120 115 108 107 102 94 81 49 42 28 25 30 155 85 343 51 83 156 53 81 53 61 168 129 39 159 164 170 92 134 126 165 170 152 236 110 241 186 184 183 213 252 232 219 230 171 155 191 174
121 122 123 119 120 114 107 107 103 92 75 65 50 34 27 20 19 95 111 25 58 84 4 49 5 333 27 43 161 118 303 148 120 135 144 155 164 124 170 236 202 246 167 205 88 252 235 245 265 211 197 198 165 167
117 118 116 115 112 105 103 102 94 83 74 64 51 35 26 21 27 75 79 354 74 101 108 282 331 38 329 27 70 88 124 72 93 72 107 134 152 186 211 205 173 200 139 199 259 278 289 267 229 213 193 172 157 154
105 107 109 107 102 103 103 96 94 88 75 62 52 34 23 25 37 76 82 33 46 121 156 249 313 8 360 40 71 77 107 108 114 83 103 209 152 112 114 76 260 188 196 165 231 224 200 229 217 187 177 186 176 149
93 96 98 99 103 108 105 99 96 85 72 59 50 29 6 15 44 56 37 4 11 44 95 100 285 357 357 41 68 68 76 97 104 137 199 230 240 112 164 213 252 220 223 205 243 215 209 256 254 181 175 170 150 138
91 94 97 104 111 112 111 103 101 95 83 71 54 31 25 49 65 73 150 280 338 22 82 56 343 326 342 29 38 27 22 57 107 139 190 176 236 118 156 219 248 234 237 242 223 132 242 193 218 158 124 114 119 112
80 86 90 90 98 113 113 106 106 102 87 76 53 50 68 81 104 42 0 354 332 88 64 113 269 358 354 18 35 352 38 16 21 133 77 181 48 95 236 243 256 256 260 272 220 201 219 139 111 111 119 118 106 107
73 76 81 84 85 99 116 108 108 98 86 73 27 54 42 35 47 302 325 322 30 99 118 103 144 220 15 48 38 22 34 33 316 187 249 110 204 219 233 279 287 262 223 260 141 145 123 108 112 113 106 100 98 120
62 65 69 77 79 83 104 111 105 97 76 29 42 46 39 318 317 319 4 27 17 348 46 103 60 141 70 33 16 66 0 199 231 239 104 176 252 295 315 301 266 275 277 153 119 113 107 106 109 93 85 91 139 141
56 63 69 71 75 74 91 99 101 90 36 42 57 85 250 324 50 36 61 67 16 29 16 86 144 138 341 119 175 138 168 215 243 247 185 238 276 299 336 357 1 38 65 65 76 81 83 93 92 96 132 139 168 181
58 57 56 55 56 61 75 88 75 56 59 129 128 90 36 36 44 86 88 36 88 184 344 121 225 106 169 109 102 221 166 90 246 163 155 256 314 1 37 50 56 64 71 70 68 76 78 90 125 128 138 123 238 242
55 53 49 42 39 45 59 67 74 98 124 48 48 50 23 337 68 153 169 204 108 358 345 6 54 15 24 46 62 108 187 224 73 190 225 56 61 57 62 69 70 78 84 90 101 110 116 85 56 61 202 215 225 323
57 55 48 43 37 29 31 50 98 73 61 64 62 77 38 70 44 74 66 82 54 149 30 60 64 62 313 73 96 201 217 79 207 225 252 20 74 45 48 29 68 57 57 96 89 83 86 116 155 289 314 312 266 287
54 53 46 22 16 17 19 29 46 55 74 75 58 76 63 103 65 57 53 75 347 137 58 65 72 66 21 95 71 79 51 266 179 247 12 55 37 66 53 64 69 57 38 40 79 95 113 203 223 262 241 187 255 270
46 44 17 4 7 13 9 29 33 55 52 68 62 110 119 120 104 102 81 75 244 79 61 56 99 81 93 140 98 222 134 199 96 32 73 101 60 95 82 44 69 194 203 172 157 231 248 335 331 308 317 282 259 242
56 39 342 4 5 15 12 67 46 53 92 69 70 30 85 65 92 114 140 184 143 70 89 97 93 194 48 42 309 11 129 94 62 34 193 158 160 167 185 228 270 299 10 12 359 2 329 346 9 339 310 305 298 275
47 333 359 1 6 24 29 33 71 67 65 60 86 73 59 37 77 27 354 358 91 133 144 157 126 119 169 167 243 158 149 191 212 215 200 153 160 161 192 67 60 32 8 332 302 292 294 319 319 298 305 295 294 291
26 13 12 15 45 73 50 20 47 78 45 76 70 44 57 86 21 232 270 329 81 149 99 46 85 176 211 206 184 191 185 201 200 198 184 163 201 216 96 77 73 35 4 351 356 322 306 330 300 308 304 308 287 296
12 17 8 6 27 61 47 2 30 91 103 212 61 53 56 59 349 351 335 336 4 74 26 151 200 210 186 222 184 181 172 169 128 75 355 334 350 74 54 38 27 3 17 21 23 23 7 359 354 345 340 327 307 299
24 348 17 15 28 38 86 7 41 39 88 66 100 80 51 22 11 305 279 332 28 210 285 224 214 244 213 318 142 127 125 139 158 150 177 148 7 70 56 39 39 36 44 23 11 357 0 352 339 336 332 323 318 305
340 34 44 15 50 29 61 19 21 302 67 117 101 127 152 160 185 236 332 4 249 241 212 220 273 171 89 43 34 30 61 83 58 51 39 66 46 31 33 16 27 30 28 21 1 352 346 341 341 336 325 321 318 314
17 34 45 26 29 36 295 339 55 348 125 236 139 123 262 140 46 16 286 243 284 21 318 11 49 69 90 73 71 50 38 67 71 49 36 58 58 36 49 53 44 38 19 8 355 356 335 328 330 328 322 330 326 319
27 35 20 10 23 0 344 327 344 58 52 179 208 217 217 159 71 103 242 251 19 336 30 32 127 105 81 65 61 45 29 49 89 62 22 29 67 56 61 65 60 48 15 329 328 333 327 327 322 327 324 325 321 320
53 297 71 337 287 148 224 304 297 184 226 200 186 236 209 97 120 192 234 223 25 29 40 56 67 80 95 94 88 62 25 21 53 78 40 47 56 36 35 43 46 45 8 355 345 341 334 328 326 323 324 320 317 320
251 233 183 204 269 174 204 211 219 211 189 196 218 186 104 146 167 216 60 8 60 36 55 49 76 84 69 62 76 48 16 354 64 94 72 53 61 97 58 28 356 332 359 342 331 331 328 325 322 319 317 313 312 316
245 280 255 212 225 233 247 230 218 199 204 200 181 164 156 201 140 74 51 9 57 8 44 66 75 68 92 87 68 35 352 6 78 100 107 86 74 70 79 81 354 314 323 322 315 308 318 318 313 314 314 328 358 354
220 158 195 266 261 233 245 285 272 261 315 61 107 103 151 84 89 32 19 45 63 64 59 52 61 75 81 76 44 23 37 38 95 97 87 66 63 76 47 332 299 318 318 301 295 299 301 300 302 303 323 338 349 3
353 298 52 355 332 9 30 349 337 12 339 88 99 89 81 54 1 342 355 9 55 68 73 78 59 67 68 65 50 35 27 40 70 60 35 314 336 317 347 317 303 306 309 308 312 322 319 319 330 5 340 352 342 2
300 82 72 16 53 18 1 326 331 315 14 83 100 95 77 49 358 344 10 40 66 73 69 66 38 61 85 93 59 28 5 39 84 123 147 268 257 281 306 312 314 308 308 310 316 320 327 347 346 5 8 1 359 2
324 4 303 114 79 17 281 274 260 238 120 87 46 83 119 151 36 20 35 31 66 58 66 51 46 22 70 46 75 78 330 325 12 345 266 245 267 283 296 303 298 310 320 335 334 319 325 354 0 358 10 9 360 9
12 42 86 3 305 302 16 28 7 23 354 67 90 104 58 56 40 319 353 69 49 56 4 126 91 325 265 132 65 63 150 281 299 291 300 241 285 280 283 297 318 360 7 353 340 335 2 14 3 9 4 360 358 1
23 22 31 32 356 352 329 45 23 1 18 59 38 91 97 125 147 232 336 61 143 163 185 219 231 210 174 159 165 254 282 263 275 302 319 322 306 323 323 330 0 21 18 2 348 353 13 16 8 358 357 1 355 356